Météo par heure à Berne

Ce jour, 1 Octobre, Jeudi

Heure Température Précipitation Vent Pression Humidité
00:00 +11°C° 0 mm 1 m/s 710 mmHg 92%
01:00 +11°C° 0 mm 1 m/s 710 mmHg 92%
02:00 +11°C° 0 mm 1 m/s 709 mmHg 92%
03:00 +11°C° 0 mm 1 m/s 709 mmHg 91%
04:00 +11°C° 0 mm 1 m/s 709 mmHg 91%
05:00 +11°C° 0 mm 1 m/s 709 mmHg 90%
06:00 +11°C° 0 mm 1 m/s 708 mmHg 90%
07:00 +13°C° 0 mm 1 m/s 708 mmHg 83%
08:00 +15°C° 0 mm 1 m/s 708 mmHg 76%
09:00 +18°C° 0 mm 1 m/s 708 mmHg 69%
10:00 +18°C° 0 mm 1 m/s 708 mmHg 67%
11:00 +18°C° 0 mm 2 m/s 708 mmHg 65%
12:00 +19°C° 0 mm 3 m/s 708 mmHg 63%
13:00 +17°C° 0.2 mm 3 m/s 708 mmHg 71%
14:00 +16°C° 0.2 mm 3 m/s 707 mmHg 80%
15:00 +13°C° 0.2 mm 3 m/s 707 mmHg 88%
16:00 +13°C° 0.4 mm 3 m/s 707 mmHg 90%
17:00 +13°C° 0.4 mm 2 m/s 707 mmHg 93%
18:00 +12°C° 0.4 mm 2 m/s 707 mmHg 95%
19:00 +12°C° 0.4 mm 2 m/s 706 mmHg 95%
20:00 +12°C° 0.4 mm 2 m/s 706 mmHg 95%
21:00 +12°C° 0.4 mm 2 m/s 706 mmHg 96%
22:00 +12°C° 0.6 mm 1 m/s 705 mmHg 96%
23:00 +12°C° 0.6 mm 1 m/s 704 mmHg 96%

Demain, 2 Octobre, Vendredi

Heure Température Précipitation Vent Pression Humidité
00:00 +11°C° 0.6 mm 1 m/s 704 mmHg 97%
01:00 +11°C° 0.3 mm 1 m/s 703 mmHg 97%
02:00 +11°C° 0.3 mm 1 m/s 702 mmHg 97%
03:00 +11°C° 0.3 mm 1 m/s 701 mmHg 97%
04:00 +11°C° 0.1 mm 1 m/s 701 mmHg 96%
05:00 +11°C° 0.1 mm 1 m/s 700 mmHg 96%
06:00 +10°C° 0.1 mm 2 m/s 700 mmHg 95%
07:00 +12°C° 0 mm 1 m/s 699 mmHg 93%
08:00 +13°C° 0 mm 1 m/s 699 mmHg 90%
09:00 +14°C° 0 mm 1 m/s 699 mmHg 88%
10:00 +14°C° 0 mm 2 m/s 698 mmHg 84%
11:00 +15°C° 0 mm 2 m/s 698 mmHg 80%
12:00 +16°C° 0 mm 3 m/s 697 mmHg 76%
13:00 +16°C° 0 mm 3 m/s 697 mmHg 77%
14:00 +16°C° 0 mm 3 m/s 696 mmHg 78%
15:00 +16°C° 0 mm 3 m/s 696 mmHg 79%
16:00 +14°C° 0 mm 3 m/s 695 mmHg 82%
17:00 +14°C° 0 mm 2 m/s 695 mmHg 85%
18:00 +13°C° 0 mm 2 m/s 695 mmHg 87%
19:00 +13°C° 0 mm 2 m/s 695 mmHg 87%
20:00 +12°C° 0 mm 1 m/s 694 mmHg 87%
21:00 +11°C° 0 mm 1 m/s 694 mmHg 87%
22:00 +11°C° 0 mm 1 m/s 694 mmHg 88%
23:00 +11°C° 0 mm 1 m/s 693 mmHg 89%

Après-demain, 3 Octobre, Samedi

Heure Température Précipitation Vent Pression Humidité
00:00 +10°C° 0 mm 1 m/s 693 mmHg 90%
01:00 +10°C° 0.2 mm 1 m/s 693 mmHg 91%
02:00 +10°C° 0.2 mm 1 m/s 693 mmHg 93%
03:00 +10°C° 0.2 mm 1 m/s 693 mmHg 95%
04:00 +9°C° 3.7 mm 2 m/s 693 mmHg 95%
05:00 +8°C° 3.7 mm 3 m/s 694 mmHg 96%
06:00 +7°C° 3.7 mm 4 m/s 694 mmHg 97%
07:00 +7°C° 4.2 mm 3 m/s 695 mmHg 96%
08:00 +7°C° 4.2 mm 2 m/s 696 mmHg 96%
09:00 +6°C° 4.2 mm 2 m/s 697 mmHg 96%
10:00 +7°C° 1 mm 2 m/s 697 mmHg 95%
11:00 +8°C° 1 mm 2 m/s 697 mmHg 94%
12:00 +8°C° 1 mm 2 m/s 698 mmHg 92%
13:00 +10°C° 0 mm 1 m/s 697 mmHg 88%
14:00 +11°C° 0 mm 1 m/s 697 mmHg 84%
15:00 +12°C° 0 mm 1 m/s 697 mmHg 79%
16:00 +11°C° 0 mm 1 m/s 696 mmHg 84%
17:00 +9°C° 0 mm 1 m/s 696 mmHg 89%
18:00 +8°C° 0 mm 1 m/s 696 mmHg 93%
19:00 +8°C° 0.1 mm 1 m/s 696 mmHg 93%
20:00 +8°C° 0.1 mm 1 m/s 697 mmHg 93%
21:00 +8°C° 0.1 mm 2 m/s 698 mmHg 92%
22:00 +8°C° 0.1 mm 3 m/s 698 mmHg 91%
23:00 +8°C° 0.1 mm 3 m/s 698 mmHg 91%

4 Octobre, Dimanche

Heure Température Précipitation Vent Pression Humidité
00:00 +7°C° 0.1 mm 4 m/s 699 mmHg 90%
01:00 +7°C° 0 mm 4 m/s 699 mmHg 89%
02:00 +7°C° 0 mm 4 m/s 699 mmHg 89%
03:00 +7°C° 0 mm 4 m/s 700 mmHg 88%
04:00 +7°C° 0 mm 4 m/s 700 mmHg 88%
05:00 +7°C° 0 mm 4 m/s 701 mmHg 87%
06:00 +8°C° 0 mm 3 m/s 701 mmHg 87%
07:00 +8°C° 0 mm 4 m/s 701 mmHg 82%
08:00 +10°C° 0 mm 4 m/s 702 mmHg 77%
09:00 +12°C° 0 mm 4 m/s 702 mmHg 72%
10:00 +12°C° 0 mm 4 m/s 702 mmHg 71%
11:00 +13°C° 0 mm 3 m/s 702 mmHg 70%
12:00 +13°C° 0 mm 3 m/s 703 mmHg 69%
13:00 +13°C° 0.4 mm 3 m/s 703 mmHg 73%
14:00 +12°C° 0.4 mm 3 m/s 702 mmHg 77%
15:00 +11°C° 0.4 mm 3 m/s 702 mmHg 81%
16:00 +12°C° 0.1 mm 2 m/s 703 mmHg 84%
17:00 +10°C° 0.1 mm 2 m/s 703 mmHg 86%
18:00 +10°C° 0.1 mm 1 m/s 703 mmHg 88%
19:00 +10°C° 0.7 mm 1 m/s 703 mmHg 90%
20:00 +10°C° 0.7 mm 1 m/s 703 mmHg 92%
21:00 +9°C° 0.7 mm 1 m/s 703 mmHg 94%
22:00 +9°C° 0.8 mm 1 m/s 704 mmHg 94%
23:00 +9°C° 0.8 mm 1 m/s 704 mmHg 94%

5 Octobre, Lundi

Heure Température Précipitation Vent Pression Humidité
00:00 +9°C° 0.8 mm 1 m/s 704 mmHg 94%
01:00 +9°C° 0.1 mm 1 m/s 704 mmHg 94%
02:00 +9°C° 0.1 mm 1 m/s 704 mmHg 94%
03:00 +8°C° 0.1 mm 1 m/s 704 mmHg 94%
04:00 +8°C° 0 mm 1 m/s 704 mmHg 94%
05:00 +8°C° 0 mm 1 m/s 705 mmHg 94%
06:00 +8°C° 0 mm 1 m/s 705 mmHg 94%
07:00 +8°C° 0.1 mm 2 m/s 705 mmHg 92%
08:00 +9°C° 0.1 mm 3 m/s 706 mmHg 90%
09:00 +10°C° 0.1 mm 3 m/s 706 mmHg 87%
10:00 +11°C° 0.1 mm 4 m/s 706 mmHg 80%
11:00 +12°C° 0.1 mm 4 m/s 706 mmHg 74%
12:00 +13°C° 0.1 mm 5 m/s 707 mmHg 67%
13:00 +12°C° 0.1 mm 5 m/s 707 mmHg 68%
14:00 +12°C° 0.1 mm 5 m/s 707 mmHg 69%
15:00 +12°C° 0.1 mm 5 m/s 707 mmHg 71%
16:00 +10°C° 0 mm 5 m/s 708 mmHg 75%
17:00 +10°C° 0 mm 4 m/s 708 mmHg 78%
18:00 +8°C° 0 mm 4 m/s 708 mmHg 82%
19:00 +8°C° 0 mm 4 m/s 709 mmHg 83%
20:00 +7°C° 0 mm 4 m/s 709 mmHg 84%
21:00 +8°C° 0 mm 3 m/s 709 mmHg 84%
22:00 +8°C° 0 mm 3 m/s 709 mmHg 84%
23:00 +7°C° 0 mm 4 m/s 709 mmHg 83%

6 Octobre, Mardi

Heure Température Précipitation Vent Pression Humidité
00:00 +7°C° 0 mm 4 m/s 709 mmHg 83%
01:00 +7°C° 0.1 mm 4 m/s 709 mmHg 83%
02:00 +7°C° 0.1 mm 4 m/s 709 mmHg 83%
03:00 +7°C° 0.1 mm 4 m/s 709 mmHg 84%
04:00 +7°C° 0.1 mm 4 m/s 710 mmHg 85%
05:00 +7°C° 0.1 mm 4 m/s 710 mmHg 86%
06:00 +7°C° 0.1 mm 4 m/s 710 mmHg 86%
07:00 +8°C° 0 mm 4 m/s 710 mmHg 81%
08:00 +10°C° 0 mm 4 m/s 710 mmHg 76%
09:00 +10°C° 0 mm 5 m/s 710 mmHg 71%
10:00 +12°C° 0 mm 4 m/s 710 mmHg 67%
11:00 +13°C° 0 mm 4 m/s 709 mmHg 64%
12:00 +14°C° 0 mm 4 m/s 709 mmHg 60%
13:00 +13°C° 0 mm 4 m/s 709 mmHg 62%
14:00 +13°C° 0 mm 4 m/s 709 mmHg 63%
15:00 +13°C° 0 mm 4 m/s 708 mmHg 65%
16:00 +12°C° 0 mm 3 m/s 709 mmHg 69%
17:00 +10°C° 0 mm 3 m/s 709 mmHg 74%
18:00 +9°C° 0 mm 2 m/s 709 mmHg 78%
19:00 +9°C° 0.1 mm 2 m/s 709 mmHg 79%
20:00 +9°C° 0.1 mm 2 m/s 709 mmHg 80%
21:00 +10°C° 0.1 mm 2 m/s 709 mmHg 82%
22:00 +9°C° 0.4 mm 2 m/s 708 mmHg 85%
23:00 +9°C° 0.4 mm 2 m/s 708 mmHg 89%
Voir plus